Tekamah, NE

6:24 PM CDT on August 24, 2016 (GMT -0500)
Tekamah

Weather History for KTQE - March, 2013

Change the Weather History Date:

Sunday, March 31, 2013

  Actual Average Record
Temperature  
Mean Temperature 44 °F -  
Max Temperature 57 °F 58 °F 91 °F (2012)
Min Temperature 30 °F 33 °F 9 °F (1987)
Degree Days  
Heating Degree Days 22    
Moisture  
Dew Point 30 °F    
Average Humidity 71    
Maximum Humidity 93    
Minimum Humidity 23    
Precipitation  
Precipitation 0.01 in - - ()
Sea Level Pressure  
Sea Level Pressure 30.03 in    
Wind  
Wind Speed 13 mph (NNW)    
Max Wind Speed 25 mph    
Max Gust Speed 33 mph    
Visibility 6 miles    
Events Fog , Rain , Snow    
Averages and records for this station are not official NWS values.
T = Trace of Precipitation, MM = Missing Value Source: NWS Daily Summary

Daily Weather History Graph

Daily Weather History Graph

Search for Another Location

Airport or City:

Trip Planner

Search our weather history database for the weather conditions in past years. The results will help you decide how hot, cold, wet, or windy it might be!

Date:

Astronomy

Mar. 31, 2013 Rise Set
Actual Time 7:08 AM CDT 7:49 PM CDT
Civil Twilight 6:40 AM CDT 8:17 PM CDT
Nautical Twilight 6:07 AM CDT 8:50 PM CDT
Astronomical Twilight 5:33 AM CDT 9:25 PM CDT
Moon No Moon Rise 9:53 AM CDT (3/31)
Length of Visible Light 13h 36m
Length of Day
12h 40m
Waning Gibbous, 77% of the Moon is Illuminated
Mar 31
Waning Gibbous
Apr 2
Last Quarter
Apr 10
New
Apr 18
First Quarter
Apr 25
Full

Hourly Weather History & Observations

Time (CDT) Temp. Windchill Dew Point Humidity Pressure Visibility Wind Dir Wind Speed Gust Speed Precip Events Conditions
12:54 AM 48.0 °F - 39.0 °F 71% 29.94 in 10.0 mi NW 11.5 mph - N/A   Clear
1:54 AM 44.1 °F 39.5 °F 37.0 °F 76% 29.96 in 9.0 mi WNW 8.1 mph - N/A   Clear
2:54 AM 42.1 °F 36.1 °F 37.0 °F 82% 29.95 in 7.0 mi WNW 10.4 mph - N/A   Clear
3:54 AM 39.0 °F 32.8 °F 34.0 °F 82% 29.96 in 6.0 mi NNW 9.2 mph - N/A   Haze
4:54 AM 37.0 °F 33.3 °F 34.0 °F 89% 29.95 in 6.0 mi North 4.6 mph - N/A   Clear
5:54 AM 37.9 °F 32.7 °F 35.1 °F 89% 29.95 in 3.0 mi NNE 6.9 mph - N/A   Clear
6:23 AM 33.8 °F 28.6 °F 32.0 °F 93% 29.96 in 2.5 mi NNW 5.8 mph - N/A   Clear
6:54 AM 35.1 °F 30.1 °F 33.1 °F 92% 29.97 in 2.5 mi WNW 5.8 mph - N/A   Clear
7:24 AM 33.8 °F - 32.0 °F 93% 29.97 in 1.2 mi Calm Calm - N/A   Clear
7:50 AM 35.6 °F 31.7 °F 32.0 °F 87% 29.98 in 2.0 mi WNW 4.6 mph - N/A   Clear
7:54 AM 35.1 °F 30.1 °F 32.0 °F 89% 29.98 in 2.0 mi WNW 5.8 mph - N/A   Clear
8:30 AM 41.0 °F 34.3 °F 35.6 °F 81% 29.99 in 3.0 mi WNW 11.5 mph - N/A   Haze
8:54 AM 44.1 °F 37.7 °F 36.0 °F 73% 29.99 in 4.0 mi NW 12.7 mph - N/A   Haze
9:54 AM 46.9 °F - 35.1 °F 63% 29.99 in 6.0 mi NW 24.2 mph - N/A   Haze
10:54 AM 51.1 °F - 32.0 °F 48% 29.99 in 9.0 mi NW 21.9 mph 27.6 mph N/A   Clear
11:54 AM 53.1 °F - 21.0 °F 29% 29.99 in 10.0 mi NW 25.3 mph 33.4 mph N/A   Clear
12:54 PM 55.0 °F - 18.0 °F 23% 29.99 in 10.0 mi NW 24.2 mph 29.9 mph N/A   Clear
1:54 PM 55.9 °F - 19.9 °F 25% 29.99 in 10.0 mi NW 25.3 mph 32.2 mph N/A   Clear
2:54 PM 57.0 °F - 21.9 °F 26% 29.99 in 10.0 mi NNW 21.9 mph 31.1 mph N/A   Clear
3:54 PM 55.9 °F - 18.0 °F 23% 29.99 in 10.0 mi NNW 20.7 mph - N/A   Scattered Clouds
4:54 PM 54.0 °F - 21.0 °F 28% 29.97 in 10.0 mi North 13.8 mph 25.3 mph N/A   Mostly Cloudy
5:54 PM 52.0 °F - 21.9 °F 31% 29.98 in 10.0 mi North 11.5 mph - N/A   Overcast
6:54 PM 48.0 °F - 26.1 °F 42% 30.01 in 10.0 mi North 19.6 mph 26.5 mph N/A   Overcast
7:54 PM 44.1 °F 35.4 °F 28.0 °F 53% 30.04 in 10.0 mi North 21.9 mph 32.2 mph N/A   Overcast
8:54 PM 37.0 °F 27.4 °F 33.1 °F 86% 30.11 in 8.0 mi North 17.3 mph - 0.00 in Rain Light Rain
9:05 PM 35.6 °F 25.2 °F 32.0 °F 87% 30.10 in 6.0 mi North 18.4 mph - 0.00 in Rain Light Rain
9:19 PM 35.6 °F 25.2 °F 32.0 °F 87% 30.11 in 1.8 mi North 18.4 mph - 0.00 in Snow Light Snow
9:33 PM 33.8 °F 22.5 °F 30.2 °F 87% 30.12 in 0.5 mi North 19.6 mph - 0.00 in Fog , Snow Snow
10:01 PM 33.8 °F 21.6 °F 30.2 °F 87% 30.14 in 0.5 mi North 23.0 mph 27.6 mph 0.00 in Fog , Snow Snow
10:43 PM 32.0 °F 20.1 °F 28.4 °F 87% 30.16 in 0.8 mi North 19.6 mph - 0.01 in Snow Light Snow
10:54 PM 30.9 °F 19.4 °F 28.0 °F 89% 30.18 in 1.2 mi North 17.3 mph - 0.01 in Snow Light Snow
11:01 PM 32.0 °F 21.2 °F 28.4 °F 87% 30.16 in 1.8 mi North 16.1 mph - 0.00 in Snow Light Snow
11:09 PM 30.2 °F 17.4 °F 28.4 °F 93% 30.17 in 2.5 mi North 20.7 mph - 0.00 in Snow Light Snow
11:17 PM 30.2 °F 19.8 °F 28.4 °F 93% 30.17 in 2.5 mi North 13.8 mph - 0.00 in Snow Light Snow
11:26 PM 30.2 °F 19.3 °F 28.4 °F 93% 30.17 in 5.0 mi North 15.0 mph - 0.00 in Snow Light Snow
11:54 PM 30.0 °F 21.7 °F 26.1 °F 85% 30.18 in 10.0 mi NNW 9.2 mph - 0.00 in   Mostly Cloudy